2024-173H (61234 NORAD) Tracking and Keplerian Element Data

This shows tracking and keplerian element data for the satellite.

Feedback or suggestion? Click here.




ElementValue
Catalog61234
Name2024-173H
Epoch Orbit280
Epoch Day286.84385786
Epoch Year2024
RAAN359.4704
Inclination97.4049
Eccentricity0.0012183
Argument of Perigee214.2854
Mean Anonmoly145.76
Mean Motion15.2676111
Decay Rate0.00057157
L11 61234U 24173H 24286.84385786 .00057157 00000+0 21566-2 0 9990
L22 61234 97.4049 359.4704 0012183 214.2854 145.7600 15.26761110 2807



Live tracking and technical data element details for 2024-173H (NORAD 61234). 2024-173H can be tracked NOW for your location showing map with azimuth and elevation plus other details from your city location.







IsCatalogInMostPopularTable: catalog: 61234, numindb: 25
Update: records affected: 1



GetName: 61234 2024-173H

Hit Count: updated at: Fri, 06 Dec 2024 10:53:02 GMT